sat.trackr.live / text

‹ back to catalog

STARLINK-3110

NORAD 49420 · 2021-104N

PAYLOAD ACTIVE UNKNOWN

§ Identity

Operator
Country
US
Launch date
2021-11-13
Launch site
AFETR
Launch vehicle
Mass (kg)
RCS (m²)

Purposes: comms

External: N2YO · Heavens-Above · Gunter

§ Orbital elements

Epoch: 2026-09-20T03:57:48.699072Z

Period
93.85 min
Inclination
53.1600°
Eccentricity
0.0001088
Mean motion
15.34382067 rev/d
Perigee alt
462.0 km
Apogee alt
463.5 km
Semi-major
6,840.9 km
B*
3.4730e-5
RAAN
61.2239°
Arg perigee
92.9957°
Mean anomaly
267.1170°
Rev number
26,818

§ Raw data

STARLINK-31101 49420U 21104N   26263.16514698  .00000797  00000+0  34730-4 0  99992 49420  53.1600  61.2239 0001088  92.9957 267.1170 15.34382067268185

JSON: /api/v1/satellites/49420 · /tle

For live sub-satellite position, see the globe view (requires WebGL).

§ Visibility from observer

Set your observer location to see the next 7 days of passes ≥ 10°. The values pass through the URL so the page stays shareable.

No JS? Fill the form by hand. The geolocation button needs JavaScript.